TimeEST,TemperatureF,Dew PointF,Humidity,Sea Level PressureIn,VisibilityMPH,Wind Direction,Wind SpeedMPH,Gust SpeedMPH,PrecipitationIn,Events,Conditions,WindDirDegrees,DateUTC
12:53 AM,71.1,66.0,84,29.87,10.0,SSW,3.5,-,N/A,,Overcast,210,2012-12-11 05:53:00
1:53 AM,71.1,66.0,84,29.86,9.0,Calm,Calm,-,N/A,,Overcast,0,2012-12-11 06:53:00
2:53 AM,71.1,66.0,84,29.86,10.0,Calm,Calm,-,N/A,,Mostly Cloudy,0,2012-12-11 07:53:00
3:04 AM,69.8,66.2,88,29.84,10.0,Calm,Calm,-,N/A,,Partly Cloudy,0,2012-12-11 08:04:00
3:32 AM,69.8,64.4,83,29.85,7.0,Calm,Calm,-,N/A,,Mostly Cloudy,0,2012-12-11 08:32:00
3:53 AM,69.1,64.9,87,29.87,8.0,Calm,Calm,-,N/A,,Mostly Cloudy,0,2012-12-11 08:53:00
4:53 AM,68.0,64.0,87,29.88,10.0,Calm,Calm,-,N/A,,Mostly Cloudy,0,2012-12-11 09:53:00
5:50 AM,69.8,64.4,83,29.88,10.0,Calm,Calm,-,N/A,,Overcast,0,2012-12-11 10:50:00
5:53 AM,69.1,64.9,87,29.91,10.0,Calm,Calm,-,N/A,,Overcast,0,2012-12-11 10:53:00
6:15 AM,69.8,64.4,83,29.89,10.0,Calm,Calm,-,N/A,,Overcast,0,2012-12-11 11:15:00
6:48 AM,68.0,64.4,88,29.90,10.0,Calm,Calm,-,N/A,,Mostly Cloudy,0,2012-12-11 11:48:00
6:53 AM,68.0,64.0,87,29.93,10.0,Calm,Calm,-,N/A,,Mostly Cloudy,0,2012-12-11 11:53:00
7:53 AM,68.0,64.0,87,29.95,8.0,Calm,Calm,-,N/A,,Mostly Cloudy,0,2012-12-11 12:53:00
8:03 AM,69.8,64.4,83,29.93,10.0,Calm,Calm,-,N/A,,Mostly Cloudy,0,2012-12-11 13:03:00
8:53 AM,70.0,64.0,81,29.97,10.0,Calm,Calm,-,N/A,,Mostly Cloudy,0,2012-12-11 13:53:00
9:46 AM,71.6,62.6,73,29.97,10.0,Calm,Calm,-,N/A,,Mostly Cloudy,0,2012-12-11 14:46:00
9:53 AM,71.1,62.1,73,30.00,10.0,NW,3.5,-,N/A,,Mostly Cloudy,310,2012-12-11 14:53:00
9:55 AM,71.6,62.6,73,29.97,10.0,NW,3.5,-,N/A,,Mostly Cloudy,310,2012-12-11 14:55:00
10:53 AM,70.0,62.1,76,30.01,10.0,Variable,4.6,-,N/A,,Mostly Cloudy,0,2012-12-11 15:53:00
11:00 AM,69.8,60.8,73,29.99,9.0,Variable,4.6,-,N/A,,Overcast,0,2012-12-11 16:00:00
11:07 AM,68.0,60.8,78,29.99,9.0,Variable,4.6,-,N/A,,Overcast,0,2012-12-11 16:07:00
11:25 AM,66.2,60.8,83,29.98,9.0,Calm,Calm,-,N/A,,Overcast,0,2012-12-11 16:25:00
12:53 PM,66.0,59.0,78,30.01,10.0,Variable,3.5,-,N/A,,Overcast,0,2012-12-11 17:53:00
1:53 PM,64.0,57.0,78,30.00,10.0,Variable,5.8,-,N/A,,Overcast,0,2012-12-11 18:53:00
2:05 PM,62.6,57.2,82,29.98,10.0,Variable,4.6,-,0.00,Rain,Light Rain,0,2012-12-11 19:05:00
2:53 PM,62.1,57.9,86,30.01,7.0,Variable,3.5,-,0.01,Rain,Light Rain,0,2012-12-11 19:53:00
3:53 PM,61.0,55.9,83,30.01,5.0,Variable,3.5,-,0.01,,Haze,0,2012-12-11 20:53:00
4:53 PM,61.0,55.9,83,30.03,6.0,Calm,Calm,-,0.00,Rain,Light Rain,0,2012-12-11 21:53:00
5:53 PM,60.1,55.0,83,30.04,10.0,Variable,3.5,-,0.00,Rain,Light Rain,0,2012-12-11 22:53:00
6:08 PM,59.0,55.4,88,30.01,10.0,North,3.5,-,0.00,Rain,Light Rain,360,2012-12-11 23:08:00
6:37 PM,59.0,53.6,82,30.02,10.0,NNE,3.5,-,0.00,,Mostly Cloudy,20,2012-12-11 23:37:00
6:45 PM,59.0,53.6,82,30.03,10.0,North,4.6,-,0.00,,Mostly Cloudy,10,2012-12-11 23:45:00
6:53 PM,59.0,54.0,83,30.05,10.0,ENE,3.5,-,0.00,,Mostly Cloudy,60,2012-12-11 23:53:00
7:00 PM,59.0,55.4,88,30.03,10.0,NNE,3.5,-,N/A,,Overcast,30,2012-12-12 00:00:00
7:48 PM,59.0,55.4,88,30.04,10.0,NE,3.5,-,N/A,,Overcast,50,2012-12-12 00:48:00
7:53 PM,59.0,54.0,83,30.07,10.0,North,4.6,-,N/A,,Overcast,10,2012-12-12 00:53:00
8:53 PM,59.0,54.0,83,30.06,10.0,NNE,4.6,-,N/A,,Mostly Cloudy,20,2012-12-12 01:53:00
9:53 PM,59.0,53.1,81,30.09,10.0,North,10.4,-,N/A,,Mostly Cloudy,10,2012-12-12 02:53:00
10:00 PM,57.2,53.6,88,30.07,10.0,North,10.4,-,N/A,,Overcast,10,2012-12-12 03:00:00
10:11 PM,57.2,51.8,82,30.07,9.0,North,13.8,-,N/A,,Overcast,10,2012-12-12 03:11:00
10:53 PM,57.0,50.0,77,30.12,10.0,North,6.9,-,N/A,,Overcast,10,2012-12-12 03:53:00
11:00 PM,57.2,50.0,77,30.10,10.0,North,5.8,-,N/A,,Overcast,360,2012-12-12 04:00:00
11:53 PM,57.0,48.9,74,30.13,10.0,NE,5.8,-,N/A,,Overcast,40,2012-12-12 04:53:00